#timestamp,LO_Frequency,Hit,StdDev 
1653332415.5,286046993.3,N
1653332435.3,286046997.5,N
1653332455.2,286046997.0,N
1653332475.9,286046998.0,N
1653332495.7,286046995.2,N
1653332515.6,286046998.9,N
1653332535.4,286047003.2,N
1653332555.2,286047010.0,N
1653332575.1,286047012.5,N
1653332576.0,286047012.5,N
1653332595.8,286047013.8,N
1653332615.7,286047013.2,N
1653332635.5,286047016.7,N
1653332655.4,286047016.6,N
1653332675.2,286047016.9,N
1653332695.0,286047013.0,N
1653332695.9,286047013.0,N
1653332715.8,286047014.5,N
1653332735.6,286047018.6,N
1653332755.4,286047018.4,N
1653332775.3,286047017.8,N
1653332795.1,286047020.5,N
1653332815.9,286047021.1,N
1653332835.7,286047020.7,N
1653332855.5,286047023.6,N
1653332875.4,286047021.2,N
1653332895.2,286047019.5,N
1653332915.0,286047021.6,N
1653332915.9,286047021.6,N
1653332935.8,286047023.2,N
1653332955.6,286047021.9,N
1653332975.5,286047018.0,N
1653332995.3,286047018.0,N
1653333015.1,286047019.0,N
1653333035.9,286047025.0,Y
1653333055.7,286047009.4,P
1653333075.5,286047012.2,P
1653333095.4,286047011.7,P
1653333115.2,286047013.0,Y
1653333135.1,286046999.9,P
1653333136.0,286046999.9,N
1653333155.8,286047002.1,N
1653333175.6,286047003.2,N
1653333195.5,286047003.5,N
1653333215.9,286047005.4,N
1653333235.7,286047006.8,N
1653333255.6,286047005.3,N
1653333275.4,286047007.5,N
1653333295.2,286047004.6,N
1653333315.1,286047006.4,N
1653333316.0,286047006.4,N
1653333335.8,286047010.0,Y
1653333355.7,286047004.5,P
1653333375.5,286047008.0,P
1653333395.3,286047010.1,P
1653333415.2,286047008.0,Y
1653333435.0,286047002.6,P
1653333435.9,286047002.6,N
1653333455.7,286046998.4,N
1653333475.6,286046998.3,N
1653333495.4,286047002.2,N
1653333515.3,286047002.8,N
1653333535.1,286047002.7,N
1653333555.9,286047003.0,N
1653333575.7,286047006.4,N
1653333595.5,286047006.3,N
1653333615.4,286047008.9,Y
1653333635.2,286047005.8,P
1653333655.0,286047007.6,P
1653333655.9,286047007.6,P
1653333675.8,286047009.1,Y
1653333695.6,286047005.6,P
1653333715.5,286047005.6,P
1653333735.3,286047006.6,P
1653333755.1,286047006.3,Y
1653333775.9,286046999.9,P
1653333795.7,286046998.2,N
1653333815.5,286047002.2,N
1653333835.4,286047001.6,N
1653333855.2,286047001.4,N
1653333875.1,286047004.2,N
1653333876.0,286047004.2,N
1653333895.8,286047005.8,N
1653333915.6,286047004.6,N
1653333935.5,286047008.1,Y
1653333955.3,286047009.2,P
1653333975.2,286047010.5,P
1653333995.0,286047009.5,N
1653333995.9,286047009.5,Y
1653334015.7,286047001.3,P
1653334035.6,286047007.4,N
1653334055.4,286047006.4,N
1653334075.3,286047003.0,N
1653334095.1,286047003.6,N
1653334115.8,286047003.7,N
1653334135.7,286047003.7,N
1653334155.5,286047004.2,N
1653334175.3,286047005.8,N
1653334195.2,286047005.5,N
1653334215.0,286047005.0,N
1653334215.9,286047005.0,N
1653334235.8,286047007.4,Y
1653334255.6,286047001.0,P
1653334275.4,286047002.7,N
1653334295.3,286047004.1,N
1653334315.1,286047003.7,N
1653334335.9,286047005.1,Y
1653334355.7,286047004.0,P
1653334375.5,286047005.0,P
1653334395.4,286047011.9,P
1653334415.2,286047010.5,Y
1653334435.0,286047002.9,P
1653334435.9,286047002.9,N
1653334455.8,286047007.1,P
1653334475.6,286047008.8,Y
1653334495.5,286047007.6,P
1653334515.3,286047007.3,P
1653334535.1,286047005.5,P
1653334555.9,286047004.8,Y
1653334575.7,286046998.8,P
1653334595.6,286047000.6,N
1653334615.4,286047001.2,N
1653334635.2,286046999.6,N
1653334655.1,286046998.4,N
1653334656.0,286046998.4,N
1653334675.8,286046998.1,N
1653334695.7,286046998.5,N
1653334715.5,286046998.8,N
1653334735.3,286046998.9,N
1653334755.2,286046998.2,N
1653334775.0,286046996.5,N
1653334775.9,286046996.5,N
1653334795.8,286046999.2,N
1653334815.6,286047001.1,N
1653334835.4,286047002.8,N
1653334855.3,286047001.5,N
1653334875.1,286047004.1,N
1653334895.8,286047007.4,Y
1653334915.7,286047009.0,P
1653334935.5,286047008.1,N
1653334955.4,286047010.5,N
1653334975.2,286047011.1,N
1653334995.0,286047011.6,N
1653334995.9,286047011.6,N
1653335015.8,286047009.5,N
1653335035.6,286047007.9,N
1653335055.4,286047008.4,N
1653335075.3,286047008.7,N
1653335095.1,286047006.9,N
1653335115.9,286047007.8,N
1653335135.7,286047007.8,N
1653335155.6,286047012.1,Y
1653335175.4,286047004.0,P
1653335195.2,286047002.7,N
1653335215.1,286047001.5,N
1653335216.0,286047001.5,N
1653335235.8,286047000.1,N
1653335255.6,286047002.3,N
1653335275.5,286047004.4,N
1653335295.3,286047005.2,N
1653335315.2,286047008.7,Y
1653335335.0,286047004.8,P
1653335335.9,286047004.8,P
1653335355.7,286047007.5,P
1653335375.6,286047007.3,Y
1653335395.4,286047000.1,P
1653335415.3,286047000.4,N
1653335435.1,286046999.8,N
1653335436.0,286046999.8,N
1653335455.8,286047003.7,N
1653335475.7,286047004.7,N
1653335495.5,286047004.6,N
1653335515.4,286047006.3,N
1653335535.2,286047007.5,N
1653335555.0,286047007.6,N
1653335555.9,286047007.6,N
1653335575.8,286047002.9,N
1653335595.6,286047002.9,N
1653335615.4,286047007.2,N
1653335635.3,286047006.6,N
1653335655.1,286047008.4,N
1653335675.9,286047009.5,Y
1653335695.7,286047007.6,P
1653335715.5,286047006.2,P
1653335735.4,286047010.8,P
1653335755.2,286047010.1,Y
1653335775.0,286046998.1,P
1653335776.0,286046998.1,N
1653335795.8,286046999.0,N
1653335815.6,286047001.1,N
1653335835.5,286047001.8,N
1653335855.3,286047001.2,N
1653335875.1,286046996.6,N
1653335895.9,286046997.6,N
1653335915.7,286046996.3,N
1653335935.5,286046997.9,N
1653335955.4,286046995.3,N
1653335975.2,286046997.6,N
1653335995.1,286046997.9,N
1653335996.0,286046997.9,N
